Regional Weather Roundup
Issued by NWS Bismarck, ND

Home | Current Version | Previous Version | Text Only | Print | Product List | Glossary On
Versions: 1 2 3 4 5 6 7 8 9 10 11 12 13 14 15 16 17 18 19 20 21 22 23 24 25 26 27 28 29 30 31 32 33 34 35 36 37 38 39 40 41 42 43 44 45 46 47 48 49 50
000
ASUS43 KBIS 221820
RWRBIS

NWR BROADCAST TEXT
NATIONAL WEATHER SERVICE BISMARCK ND
100 PM CDT TUE JUL 22 2014

NOTE: "FAIR" INDICATES FEW OR NO CLOUDS BELOW 12,000 FEET WITH NO
SIGNIFICANT WEATHER AND/OR OBSTRUCTIONS TO VISIBILITY.


CITY           SKY/WX    TMP DP  RH WIND       PRES   REMARKS
WILLISTON      PTSUNNY   81  59  47 VRB5      30.18S
MINOT          SUNNY     75  60  59 VRB7      30.19S
MINOT AFB      MOSUNNY   74  64  69 NE7       30.18S
BISMARCK       SUNNY     76  62  62 VRB5      30.20S
DICKINSON      MOSUNNY   76  65  68 E7        30.21S
GARRISON         N/A     75  64  68 VRB6      30.20S
HETTINGER ARPT SUNNY     78  60  53 CALM      30.23S
JAMESTOWN      MOSUNNY   76  60  57 N9        30.17S
CARRINGTON     FAIR      73  63  68 NE5       30.20S
CROSBY         FAIR      73  66  78 N5        30.21R
HARVEY         FAIR      73  64  73 CALM      30.19S
HAZEN            N/A     75  63  64 CALM      30.21S
MANDAN         FAIR      73  63  68 N5        30.22S
RUGBY          FAIR      73  59  60 CALM      30.19S
STANLEY        MOCLDY    73  66  78 NE3       30.20S
TIOGA          FAIR      75  64  69 SW3       30.23R
WATFORD CITY   FAIR      77  63  61 SE6       30.18S
$$

CITY           SKY/WX    TMP DP  RH WIND       PRES   REMARKS
GRAND FORKS    SUNNY     74  57  55 N10       30.14R
GRAND FORKS AF SUNNY     74  57  55 NW12      30.16R
DEVILS LAKE    SUNNY     73  55  53 N7        30.17S
FARGO          SUNNY     77  59  53 N17       30.13R
CANDO          FAIR      73  57  56 NE3         N/A
CAVALIER       FAIR      73  55  53 NW6       30.15F
GRAFTON        FAIR      73  55  53 NW9       30.15S
GWINNER        CLEAR     77  57  50 N9        30.17R
LANGDON        FAIR      73  57  56 NW6       30.19S
ROLLA            N/A     72  55  56 W5        30.21S
WALHALLA       FAIR      73  55  53 NW10        N/A
$$

CITY           SKY/WX    TMP DP  RH WIND       PRES   REMARKS
ABERDEEN       MOSUNNY   77  60  55 NE15      30.15S
MOBRIDGE       SUNNY     78  61  55 VRB3      30.17S
BUFFALO          N/A     84  57  39 SE10      30.16F
RAPID CITY     SUNNY     82  61  48 E6        30.23S
GLASGOW        SUNNY     83  55  38 N10       30.18S
SIDNEY         PTSUNNY   82  61  47 CALM      30.19F
WOLF POINT     SUNNY     83  55  38 NE9       30.18R
GLENDIVE       SUNNY     82  52  34 E3        30.19S
MILES CITY     MOSUNNY   87  58  37 VRB7      30.15F
BAKER          SUNNY     87  53  31 E12       30.21F
$$

CITY           SKY/WX    TMP DP  RH WIND       PRES   REMARKS
BILLINGS       MOSUNNY   81  54  39 NE7       30.20S
GREAT FALLS    CLOUDY    71  53  52 S8        30.19S
REGINA         SUNNY     75  46  35 VRB5      30.22S
ESTEVAN        PTSUNNY   73  57  56 SE6       30.21R
$$



USA.gov is the U.S. government's official web portal to all federal, state and local government web resources and services.